Flag for U.S.A. Weather past 2 weeks in Wichita, Kansas, U.S.A.

Now
62 °F

Light rain. Overcast.


Feels Like: 62 °F
Forecast: 62 / 80 °F
Wind: 10 mph from West

Location: Wichita Mid-Continent Airport

Current Time: May 25, 2015 at 9:25:39 PM

Latest Report: May 25, 2015 at 8:53 PM


Visibility: 10 mi

Pressure: 29.80 "Hg

Humidity: 83%

Dew point: 57 °F

Location of WichitaLocation

Historic Weather in Wichita — Graph

°F

Wichita temperature yesterday

Maximum temperature yesterday: 70 °F (at 1:53 PM)
Minimum temperature yesterday: 59 °F (at 5:53 AM)
Average temperature yesterday: 63 °F

Past Weeks' High & Low Weather Summary

 TemperatureHumidityPressure
High80 °F (May 15, 4:53 PM)97% (May 14, 12:53 AM)30.36 "Hg (May 14, 12:53 AM)
Low42 °F (May 12, 6:53 AM)29% (May 11, 6:53 PM)29.63 "Hg (May 17, 12:53 AM)
Average61 °F75%30.02 "Hg
* Reported May 10 8:53 PM — May 25 8:01 PM, Wichita, Weather by CustomWeather, © 2015

Note: Actual official high and low records may vary slightly from our data, if they occured in-between our weather recording intervals... More about our weather records

Advertising

Wichita weather history for previous 24 hours

 ConditionsComfort  
Time TempWeatherWind HumidityBarometerVisibility
8:01 PM
Mon, May 25
62 °FThunderstorms. Fog.14 mph86%29.86 "Hg5 mi
7:53 PM62 °FStrong thunderstorms. Fog.15 mph86%29.84 "Hg2 mi
6:53 PM65 °FThunderstorms. More clouds than sun.6 mph81%29.80 "Hg6 mi
5:53 PM72 °FThunderstorms. Cloudy.13 mph84%29.76 "Hg10 mi
4:53 PM75 °FThunderstorms. Cloudy.14 mph76%29.77 "Hg8 mi
3:53 PM71 °FThunderstorms. Cloudy.12 mph78%29.79 "Hg10 mi
2:53 PM76 °FThunderstorms. Broken clouds.20 mph74%29.78 "Hg10 mi
1:53 PM79 °FBroken clouds.24 mph69%29.77 "Hg10 mi
12:53 PM78 °FPartly sunny.26 mph69%29.79 "Hg10 mi
11:53 AM76 °FBroken clouds.25 mph74%29.79 "Hg10 mi
11:03 AM73 °FPartly sunny.26 mph81%29.82 "Hg10 mi
10:53 AM73 °FPartly sunny.22 mph81%29.79 "Hg10 mi
9:53 AM67 °FLow clouds.17 mph87%29.80 "Hg10 mi
8:53 AM63 °FPartly sunny.16 mph90%29.83 "Hg10 mi
7:53 AM60 °FMostly cloudy.12 mph90%29.83 "Hg10 mi
6:53 AM58 °FMostly cloudy.13 mph93%29.83 "Hg10 mi
5:53 AM59 °FMostly cloudy.5 mph90%29.85 "Hg10 mi
4:53 AM62 °FLow clouds.8 mph93%29.83 "Hg10 mi
3:53 AM60 °FPartly cloudy.14 mph93%29.78 "Hg10 mi
2:53 AM60 °FPassing clouds.13 mph93%29.79 "Hg10 mi
1:53 AM60 °FPassing clouds.10 mph96%29.81 "Hg10 mi
1:00 AM60 °FPartly cloudy.12 mph93%29.84 "Hg10 mi
11:53 PM
Sun, May 24
60 °FOvercast.8 mph93%29.83 "Hg10 mi
10:53 PM60 °FOvercast.6 mph93%29.84 "Hg10 mi
9:53 PM61 °FPassing clouds.8 mph93%29.82 "Hg10 mi
Weather by CustomWeather, © 2015

See weather overviewHow to use our weather pages